GW0655 Weather Reports


time (UTC)temp
C
wind
direction
speed
KPH
gust
KPH
rain 1hr
cm
rain 24hr
cm
rain mn
cm
humidity
%
barometer
mb
20260509055437 22 196 4.8 8.0 0.00 0.00 0.00 94 1012.0
20260509054933 22 153 1.6 3.2 0.00 0.00 0.00 94 1012.4
20260509054430 22 185 1.6 1.6 0.00 0.00 0.00 94 1011.7
20260509053929 22 159 1.6 1.6 0.00 0.00 0.00 93 1011.7
20260509053426 22 171 6.4 12.9 0.00 0.00 0.00 93 1011.7
20260509052923 22 187 6.4 8.0 0.00 0.00 0.00 93 1011.7
20260509052421 22 200 3.2 3.2 0.00 0.00 0.00 92 1011.3
20260509051919 22 202 3.2 3.2 0.00 0.00 0.00 92 1011.7
20260509051416 22 212 6.4 8.0 0.00 0.00 0.00 92 1011.3
20260509050913 22 240 1.6 1.6 0.00 0.00 0.00 92 1011.7
20260509050410 22 148 1.6 1.6 0.00 0.00 0.00 92 1011.7
20260509045907 22 156 3.2 3.2 0.00 0.00 0.00 92 1011.3
20260509045403 22 212 1.6 1.6 0.00 0.00 0.00 91 1011.3
20260509044901 22 243 0.0 0.0 0.00 0.00 0.00 91 1011.3
20260509044358 22 206 1.6 1.6 0.00 0.00 0.00 91 1011.3
20260509043855 23 215 0.0 1.6 0.00 0.00 0.00 90 1011.3
20260509043351 23 223 1.6 1.6 0.00 0.00 0.00 90 1011.7
20260509042847 23 137 1.6 3.2 0.00 0.00 0.00 90 1011.3
20260509042343 23 241 1.6 1.6 0.00 0.00 0.00 89 1011.7
20260509041840 23 232 1.6 1.6 0.00 0.00 0.00 89 1011.7
20260509041337 23 204 0.0 1.6 0.00 0.00 0.00 89 1011.7
20260509040835 23 239 0.0 0.0 0.00 0.00 0.00 88 1011.7
20260509040333 23 236 0.0 1.6 0.00 0.00 0.00 88 1011.7
20260509035829 23 227 0.0 0.0 0.00 0.00 0.00 87 1011.7
20260509035327 23 230 0.0 0.0 0.00 0.00 0.00 87 1011.7
20260509034822 23 227 1.6 1.6 0.00 0.00 0.00 87 1011.7
20260509034321 23 214 3.2 3.2 0.00 0.00 0.00 87 1011.7
20260509033817 23 242 0.0 1.6 0.00 0.00 0.00 87 1011.7
20260509033315 23 221 1.6 1.6 0.00 0.00 0.00 87 1011.7
20260509032811 23 247 0.0 1.6 0.00 0.00 0.00 87 1011.7
20260509032308 23 219 0.0 1.6 0.00 0.00 0.00 87 1011.7
20260509031806 23 243 0.0 0.0 0.00 0.00 0.00 87 1011.3
20260509031303 23 259 0.0 0.0 0.00 0.00 0.00 87 1011.3
20260509030801 23 210 0.0 1.6 0.00 0.00 0.00 86 1011.3
20260509030259 23 219 0.0 1.6 0.00 0.00 0.00 86 1011.0
20260509025755 23 189 1.6 1.6 0.00 0.00 0.00 85 1011.3
20260509025250 23 238 1.6 1.6 0.00 0.00 0.00 85 1011.3
20260509024746 23 189 1.6 1.6 0.00 0.00 0.00 85 1011.0
20260509024242 23 225 1.6 1.6 0.00 0.00 0.00 84 1011.3
20260509023740 24 227 1.6 1.6 0.00 0.00 0.00 84 1011.0
20260509023237 24 249 1.6 1.6 0.00 0.00 0.00 84 1011.0
20260509022733 24 231 0.0 0.0 0.00 0.00 0.00 83 1011.0
20260509022231 24 179 1.6 3.2 0.00 0.00 0.00 83 1011.0
20260509021728 24 228 0.0 0.0 0.00 0.00 0.00 83 1010.7
20260509021225 24 281 0.0 0.0 0.00 0.00 0.00 83 1010.7
20260509020723 25 215 0.0 1.6 0.00 0.00 0.00 82 1010.7
20260509020219 25 198 0.0 0.0 0.00 0.00 0.00 81 1010.7
20260509015718 25 213 1.6 1.6 0.00 0.00 0.00 81 1010.3
20260509015216 25 233 0.0 1.6 0.00 0.00 0.00 81 1010.3
20260509014712 25 178 1.6 1.6 0.00 0.00 0.00 81 1010.3
20260509014209 25 172 0.0 0.0 0.00 0.00 0.00 81 1010.7
20260509013705 25 219 3.2 3.2 0.00 0.00 0.00 81 1010.3
20260509013201 25 180 1.6 3.2 0.00 0.00 0.00 80 1010.3
20260509012658 25 173 3.2 3.2 0.00 0.00 0.00 81 1010.3
20260509012154 25 148 6.4 8.0 0.00 0.00 0.00 80 1010.7
20260509011652 25 240 1.6 3.2 0.00 0.00 0.00 80 1010.3
20260509011149 25 165 3.2 4.8 0.00 0.00 0.00 80 1010.3
20260509010647 25 166 4.8 8.0 0.00 0.00 0.00 80 1010.3
20260509010143 25 203 1.6 1.6 0.00 0.00 0.00 79 1010.3
20260509005641 25 225 3.2 3.2 0.00 0.00 0.00 79 1010.0
20260509005137 25 69 0.0 1.6 0.00 0.00 0.00 79 1010.0
20260509004633 25 122 4.8 4.8 0.00 0.00 0.00 78 1010.0
20260509004130 25 158 0.0 1.6 0.00 0.00 0.00 78 1010.3
20260509003629 26 158 3.2 3.2 0.00 0.00 0.00 78 1010.3
20260509003126 26 240 1.6 1.6 0.00 0.00 0.00 78 1010.0
20260509002623 25 174 4.8 8.0 0.00 0.00 0.00 78 1010.0
20260509002120 26 221 4.8 4.8 0.00 0.00 0.00 77 1010.3
20260509001618 26 234 4.8 4.8 0.00 0.00 0.00 77 1010.3
20260509001113 26 172 4.8 4.8 0.00 0.00 0.00 77 1010.3
20260509000612 26 203 1.6 1.6 0.00 0.00 0.00 78 1010.3
20260509000108 26 170 4.8 8.0 0.00 0.00 0.00 77 1010.7
20260508235606 26 176 3.2 3.2 0.00 0.00 0.00 76 1010.3
20260508235102 26 128 4.8 9.7 0.00 0.00 0.00 76 1010.3
20260508234600 26 140 8.0 11.3 0.00 0.00 0.00 76 1010.3
20260508234056 26 152 4.8 8.0 0.00 0.00 0.00 75 1010.3
20260508233555 26 196 1.6 1.6 0.00 0.00 0.00 76 1010.3
20260508233052 26 230 4.8 8.0 0.00 0.00 0.00 74 1010.3
20260508232549 26 145 1.6 3.2 0.00 0.00 0.00 74 1010.0
20260508232046 27 236 3.2 3.2 0.00 0.00 0.00 73 1010.0
20260508231544 27 67 4.8 4.8 0.00 0.00 0.00 73 1010.0
20260508231041 27 213 3.2 3.2 0.00 0.00 0.00 72 1010.0
20260508230537 27 197 3.2 4.8 0.00 0.00 0.00 72 1010.3
20260508230034 26 250 3.2 3.2 0.00 0.00 0.00 72 1010.3
20260508225531 27 263 0.0 1.6 0.00 0.00 0.00 73 1010.3
20260508225028 27 205 3.2 3.2 0.00 0.00 0.00 72 1010.0
20260508224526 27 172 4.8 4.8 0.00 0.00 0.00 71 1010.0
20260508224023 27 206 3.2 4.8 0.00 0.00 0.00 71 1010.3
20260508223521 27 76 3.2 4.8 0.00 0.00 0.00 72 1010.0
20260508223018 27 250 3.2 3.2 0.00 0.00 0.00 71 1010.3
20260508222515 27 263 1.6 3.2 0.00 0.00 0.00 70 1010.0
20260508222012 27 244 3.2 3.2 0.00 0.00 0.00 70 1010.0
20260508221508 27 115 3.2 3.2 0.00 0.00 0.00 69 1010.3
20260508221004 27 172 4.8 9.7 0.00 0.00 0.00 69 1010.3
20260508220501 27 182 4.8 4.8 0.00 0.00 0.00 70 1010.3
20260508215956 27 149 4.8 4.8 0.00 0.00 0.00 69 1010.3
20260508215454 27 150 1.6 4.8 0.00 0.00 0.00 69 1010.7
20260508214950 27 160 3.2 3.2 0.00 0.00 0.00 69 1010.3
20260508214448 28 157 3.2 3.2 0.00 0.00 0.00 68 1010.7
20260508213944 27 191 0.0 1.6 0.00 0.00 0.00 70 1010.7
20260508213442 27 172 3.2 4.8 0.00 0.00 0.00 70 1010.3
20260508212937 26 176 1.6 1.6 0.00 0.00 0.00 72 1010.3
20260508212434 27 238 1.6 1.6 0.00 0.00 0.00 70 1010.7
20260508211930 27 219 0.0 1.6 0.00 0.00 0.00 71 1010.7
20260508211425 27 285 1.6 1.6 0.00 0.00 0.00 70 1010.7
20260508210923 27 151 4.8 8.0 0.00 0.00 0.00 70 1011.0
20260508210420 27 41 1.6 1.6 0.00 0.00 0.00 70 1011.0
20260508205916 26 213 1.6 1.6 0.00 0.00 0.00 72 1011.0
20260508205413 26 184 1.6 1.6 0.00 0.00 0.00 72 1011.3
20260508204909 27 183 4.8 4.8 0.00 0.00 0.00 71 1011.3
20260508204407 27 341 0.0 1.6 0.00 0.00 0.00 71 1011.3
20260508203902 27 76 1.6 3.2 0.00 0.00 0.00 69 1011.0
20260508203358 27 209 4.8 8.0 0.00 0.00 0.00 68 1011.3
20260508202854 27 216 3.2 4.8 0.00 0.00 0.00 69 1011.7
20260508202351 27 165 1.6 3.2 0.00 0.00 0.00 70 1011.3
20260508201849 26 118 4.8 4.8 0.00 0.00 0.00 71 1011.3
20260508201345 27 86 0.0 0.0 0.00 0.00 0.00 70 1011.7
20260508200842 26 241 3.2 3.2 0.00 0.00 0.00 69 1012.0
20260508200339 26 261 0.0 1.6 0.00 0.00 0.00 70 1011.7
20260508195834 26 126 4.8 4.8 0.00 0.00 0.00 70 1012.0
20260508195331 26 316 0.0 0.0 0.00 0.00 0.00 70 1012.0
20260508194827 26 214 1.6 3.2 0.00 0.00 0.00 71 1011.7
20260508194325 26 203 4.8 8.0 0.00 0.00 0.00 69 1012.0
20260508193822 26 178 3.2 3.2 0.00 0.00 0.00 69 1012.4
20260508193319 26 247 3.2 4.8 0.00 0.00 0.00 70 1012.4
20260508192815 26 352 1.6 3.2 0.00 0.00 0.00 71 1012.4
20260508192312 26 131 4.8 8.0 0.00 0.00 0.00 70 1012.4
20260508191809 26 229 1.6 3.2 0.00 0.00 0.00 71 1012.0
20260508191306 26 223 4.8 4.8 0.00 0.00 0.00 70 1012.4
20260508190804 26 146 9.7 12.9 0.00 0.00 0.00 70 1012.4
20260508190259 27 102 4.8 8.0 0.00 0.00 0.00 67 1012.7
20260508185756 26 160 0.0 0.0 0.00 0.00 0.00 69 1012.4
20260508185254 26 201 1.6 3.2 0.00 0.00 0.00 69 1012.4
20260508184750 26 297 3.2 3.2 0.00 0.00 0.00 71 1012.4
20260508184248 25 41 0.0 1.6 0.00 0.00 0.00 72 1012.4
20260508183745 25 250 1.6 1.6 0.00 0.00 0.00 71 1012.7
20260508183241 26 231 4.8 4.8 0.00 0.00 0.00 70 1012.7
20260508182737 25 187 1.6 3.2 0.00 0.00 0.00 72 1013.1
20260508182234 25 203 4.8 4.8 0.00 0.00 0.00 71 1013.5
20260508181729 25 162 4.8 4.8 0.00 0.00 0.00 72 1013.1
20260508181227 25 166 3.2 3.2 0.00 0.00 0.00 71 1013.5
20260508180723 25 201 4.8 4.8 0.00 0.00 0.00 69 1013.5
20260508180220 25 183 3.2 3.2 0.00 0.00 0.00 70 1013.5
20260508175717 25 236 1.6 1.6 0.00 0.00 0.00 69 1013.5
20260508175213 25 202 0.0 1.6 0.00 0.00 0.00 70 1013.5
20260508174712 24 18 1.6 1.6 0.00 0.00 0.00 72 1013.5
20260508174208 25 65 0.0 0.0 0.00 0.00 0.00 72 1013.5
20260508173704 25 61 3.2 3.2 0.00 0.00 0.00 71 1013.5
20260508173200 25 316 0.0 1.6 0.00 0.00 0.00 70 1013.8
20260508172658 25 176 3.2 3.2 0.00 0.00 0.00 71 1013.8
20260508172155 25 271 1.6 1.6 0.00 0.00 0.00 70 1013.8
20260508171651 25 272 1.6 1.6 0.00 0.00 0.00 69 1013.8
20260508171147 24 243 3.2 3.2 0.00 0.00 0.00 70 1013.5
20260508170644 24 212 3.2 3.2 0.00 0.00 0.00 72 1013.8
20260508170142 25 322 0.0 0.0 0.00 0.00 0.00 71 1013.5
20260508165639 24 33 0.0 0.0 0.00 0.00 0.00 70 1013.8
20260508165136 25 321 1.6 1.6 0.00 0.00 0.00 70 1014.1
20260508164632 24 348 4.8 4.8 0.00 0.00 0.00 70 1014.1
20260508164129 24 129 0.0 0.0 0.00 0.00 0.00 70 1013.8
20260508163627 24 49 0.0 0.0 0.00 0.00 0.00 71 1013.8
20260508163124 23 351 1.6 3.2 0.00 0.00 0.00 70 1014.1
20260508162620 23 254 1.6 1.6 0.00 0.00 0.00 71 1014.5
20260508162118 23 184 0.0 1.6 0.00 0.00 0.00 71 1014.5
20260508161614 22 256 0.0 1.6 0.00 0.00 0.00 73 1014.5
20260508161112 22 239 1.6 1.6 0.00 0.00 0.00 75 1014.5
20260508160610 22 233 1.6 1.6 0.00 0.00 0.00 73 1014.8
20260508160107 22 244 1.6 1.6 0.00 0.00 0.00 73 1014.5
20260508155604 22 189 1.6 3.2 0.00 0.00 0.00 73 1014.5
20260508155101 22 163 3.2 3.2 0.00 0.00 0.00 72 1014.5
20260508154558 22 173 0.0 0.0 0.00 0.00 0.00 73 1014.8
20260508154055 22 246 0.0 0.0 0.00 0.00 0.00 72 1014.8
20260508153552 22 162 3.2 3.2 0.00 0.00 0.00 72 1015.2
20260508153048 23 183 1.6 3.2 0.00 0.00 0.00 69 1014.8
20260508152545 22 284 1.6 1.6 0.00 0.00 0.00 71 1014.8
20260508152040 21 265 0.0 0.0 0.00 0.00 0.00 74 1014.8
20260508151537 20 270 1.6 1.6 0.00 0.00 0.00 76 1014.8
20260508151034 20 38 0.0 0.0 0.00 0.00 0.00 76 1015.2
20260508150531 20 99 1.6 1.6 0.00 0.00 0.00 75 1015.2
20260508150027 20 223 1.6 1.6 0.00 0.00 0.00 75 1015.2
20260508145524 20 237 1.6 3.2 0.00 0.00 0.00 74 1015.2
20260508145020 20 214 1.6 3.2 0.00 0.00 0.00 74 1015.2
20260508144518 20 260 0.0 0.0 0.00 0.00 0.00 75 1015.2
20260508144015 20 40 0.0 0.0 0.00 0.00 0.00 74 1015.2
20260508143513 20 33 0.0 0.0 0.00 0.00 0.00 76 1014.8
20260508143009 18 166 1.6 3.2 0.00 0.00 0.00 78 1014.8
20260508142506 18 32 0.0 0.0 0.00 0.00 0.00 79 1015.2
20260508142003 18 245 0.0 0.0 0.00 0.00 0.00 81 1015.2
20260508141459 17 185 1.6 3.2 0.00 0.00 0.00 81 1015.2
20260508140957 17 128 3.2 3.2 0.00 0.00 0.00 81 1015.2
20260508140454 17 170 3.2 4.8 0.00 0.00 0.00 81 1015.2
20260508135949 17 157 1.6 3.2 0.00 0.00 0.00 82 1015.5
20260508135446 17 250 0.0 0.0 0.00 0.00 0.00 81 1015.5
20260508134943 17 68 0.0 0.0 0.00 0.00 0.00 81 1015.2
20260508134439 17 188 0.0 1.6 0.00 0.00 0.00 82 1015.5
20260508133936 17 54 0.0 0.0 0.00 0.00 0.00 81 1015.8
20260508133434 17 280 0.0 0.0 0.00 0.00 0.00 81 1015.8
20260508132930 17 10 1.6 3.2 0.00 0.00 0.00 81 1015.8
20260508132428 17 333 1.6 1.6 0.00 0.00 0.00 81 1015.8
20260508131925 17 318 1.6 1.6 0.00 0.00 0.00 81 1015.5
20260508131420 17 351 4.8 4.8 0.00 0.00 0.00 81 1015.5
20260508130917 17 41 1.6 1.6 0.00 0.00 0.00 81 1015.5
20260508130414 17 313 0.0 0.0 0.00 0.00 0.00 81 1015.5
20260508125910 17 346 3.2 3.2 0.00 0.00 0.00 81 1015.5
20260508125406 17 3 3.2 3.2 0.00 0.00 0.00 81 1015.5
20260508124904 17 32 1.6 1.6 0.00 0.00 0.00 81 1015.2
20260508124401 17 18 4.8 4.8 0.00 0.00 0.00 81 1015.2
20260508123859 17 335 4.8 4.8 0.00 0.00 0.00 81 1015.2
20260508123357 17 8 4.8 4.8 0.00 0.00 0.00 81 1015.2
20260508122853 17 336 3.2 3.2 0.00 0.00 0.00 81 1015.5
20260508122350 17 337 4.8 4.8 0.00 0.00 0.00 81 1015.5
20260508121848 17 36 1.6 1.6 0.00 0.00 0.00 81 1015.5
20260508121346 17 345 3.2 4.8 0.00 0.00 0.00 81 1015.8
20260508120843 17 14 1.6 1.6 0.00 0.00 0.00 81 1016.2
20260508120341 17 301 1.6 1.6 0.00 0.00 0.00 81 1015.8
20260508115838 17 284 1.6 3.2 0.00 0.00 0.00 81 1016.2
20260508115336 17 307 1.6 1.6 0.00 0.00 0.00 81 1016.2
20260508114832 17 336 3.2 3.2 0.00 0.00 0.00 81 1015.8
20260508114329 17 335 4.8 4.8 0.00 0.00 0.00 81 1016.2
20260508113826 17 312 1.6 1.6 0.00 0.00 0.00 81 1016.2
20260508113324 17 330 1.6 1.6 0.00 0.00 0.00 81 1015.8
20260508112820 17 281 1.6 1.6 0.00 0.00 0.00 81 1016.2
20260508112317 17 269 0.0 0.0 0.00 0.00 0.00 81 1016.2
20260508111813 17 299 1.6 1.6 0.00 0.00 0.00 81 1016.2
20260508111311 17 290 0.0 0.0 0.00 0.00 0.00 81 1016.2
20260508110808 17 319 1.6 3.2 0.00 0.00 0.00 81 1015.5
20260508110306 17 286 3.2 3.2 0.00 0.00 0.00 81 1015.8
20260508105805 17 1 3.2 3.2 0.00 0.00 0.00 81 1015.5
20260508105305 17 288 0.0 1.6 0.00 0.00 0.00 81 1015.8
20260508104759 17 7 1.6 1.6 0.00 0.00 0.00 82 1015.8
20260508104256 16 341 3.2 3.2 0.00 0.00 0.00 81 1015.8
20260508103753 16 337 1.6 3.2 0.00 0.00 0.00 82 1015.8
20260508103250 16 295 1.6 1.6 0.00 0.00 0.00 82 1015.8
20260508102747 16 343 3.2 3.2 0.00 0.00 0.00 82 1015.5
20260508102245 16 0 4.8 8.0 0.00 0.00 0.00 83 1015.5
20260508101742 16 357 3.2 3.2 0.00 0.00 0.00 83 1015.8
20260508101240 16 358 3.2 4.8 0.00 0.00 0.00 83 1015.5
20260508100738 16 295 3.2 3.2 0.00 0.00 0.00 83 1015.5
20260508100235 16 1 3.2 3.2 0.00 0.00 0.00 83 1015.8
20260508095731 16 353 4.8 4.8 0.00 0.00 0.00 81 1015.8
20260508095229 17 298 1.6 1.6 0.00 0.00 0.00 79 1015.8
20260508094725 17 10 1.6 1.6 0.00 0.00 0.00 79 1015.8
20260508094222 17 314 1.6 1.6 0.00 0.00 0.00 79 1016.2
20260508093720 17 292 1.6 1.6 0.00 0.00 0.00 79 1016.5
20260508093218 17 333 0.0 1.6 0.00 0.00 0.00 79 1016.2
20260508092714 17 292 1.6 1.6 0.00 0.00 0.00 79 1016.2
20260508092212 17 300 1.6 1.6 0.00 0.00 0.00 79 1016.2
20260508091710 17 304 1.6 1.6 0.00 0.00 0.00 79 1015.8
20260508091207 17 321 1.6 1.6 0.00 0.00 0.00 78 1015.5
20260508090704 17 10 0.0 0.0 0.00 0.00 0.00 78 1015.5
20260508090202 17 286 1.6 1.6 0.00 0.00 0.00 78 1015.5
20260508085657 17 323 1.6 1.6 0.00 0.00 0.00 78 1015.5
20260508085155 17 359 3.2 3.2 0.00 0.00 0.00 78 1015.5
20260508084651 17 310 1.6 3.2 0.00 0.00 0.00 78 1015.8
20260508084148 17 237 0.0 0.0 0.00 0.00 0.00 77 1015.8
20260508083646 17 314 1.6 3.2 0.00 0.00 0.00 77 1015.8
20260508083143 17 333 3.2 3.2 0.00 0.00 0.00 78 1015.8
20260508082638 17 310 1.6 1.6 0.00 0.00 0.00 77 1016.2
20260508082136 17 330 1.6 1.6 0.00 0.00 0.00 77 1016.2
20260508081633 17 337 3.2 3.2 0.00 0.00 0.00 77 1015.8
20260508081129 17 345 1.6 3.2 0.00 0.00 0.00 77 1015.8
20260508080627 17 323 0.0 0.0 0.00 0.00 0.00 77 1016.2
20260508080125 17 336 1.6 3.2 0.00 0.00 0.00 77 1015.8
20260508075621 17 346 3.2 3.2 0.00 0.00 0.00 77 1015.8
20260508075118 17 300 1.6 1.6 0.00 0.00 0.00 77 1015.5
20260508074616 17 320 3.2 3.2 0.00 0.00 0.00 77 1015.8
20260508074113 17 303 1.6 3.2 0.00 0.00 0.00 77 1015.8
20260508073610 17 303 1.6 1.6 0.00 0.00 0.00 77 1015.8
20260508073108 17 300 1.6 1.6 0.00 0.00 0.00 78 1016.2
20260508072603 17 315 1.6 1.6 0.00 0.00 0.00 78 1015.5
20260508072100 17 334 1.6 3.2 0.00 0.00 0.00 78 1015.5
20260508071558 17 342 3.2 3.2 0.00 0.00 0.00 78 1015.5
20260508071056 17 344 3.2 3.2 0.00 0.00 0.00 78 1015.8
20260508070553 17 333 3.2 4.8 0.00 0.00 0.00 78 1015.8
20260508070052 17 43 0.0 0.0 0.00 0.00 0.00 77 1016.2
20260508065549 17 333 3.2 3.2 0.00 0.00 0.00 78 1016.2
20260508065047 17 333 3.2 3.2 0.00 0.00 0.00 78 1016.2
20260508064544 17 341 3.2 3.2 0.00 0.00 0.00 78 1016.2
20260508064042 17 305 3.2 3.2 0.00 0.00 0.00 78 1016.9
20260508063539 17 288 1.6 1.6 0.00 0.00 0.00 77 1016.9
20260508063037 17 326 3.2 3.2 0.00 0.00 0.00 77 1016.9
20260508062534 17 285 0.0 0.0 0.00 0.00 0.00 78 1016.9
20260508062031 17 357 0.0 0.0 0.00 0.00 0.00 78 1016.9
20260508061529 17 307 1.6 1.6 0.00 0.00 0.00 77 1016.9
20260508061025 16 271 0.0 0.0 0.00 0.00 0.00 78 1016.9
20260508060522 16 282 0.0 0.0 0.00 0.00 0.00 78 1016.9
20260508060020 16 292 0.0 1.6 0.00 0.00 0.00 78 1016.5